| time (UTC) | temp F | wind direction | speed MPH | gust MPH | rain 1hr in | rain 24hr in | rain mn in | humidity % | barometer mb |
| 20260905043036 | 64 | 349 | 0.0 | 1.0 | 0.00 | 0.00 | 0.00 | 89 | 1018.0 |
| 20260905041506 | 64 | 359 | 1.0 | 2.0 | 0.00 | 0.00 | 0.00 | 90 | 1018.1 |
| 20260905040038 | 64 | 359 | 0.0 | 1.0 | 0.00 | 0.00 | 0.00 | 90 | 1018.2 |
| 20260905034516 | 64 | 22 | 0.0 | 1.0 | 0.00 | 0.00 | 0.00 | 90 | 1018.1 |
| 20260905033105 | 64 | 18 | 0.0 | 1.0 | 0.00 | 0.00 | 0.00 | 90 | 1018.1 |
| 20260905031530 | 64 | 269 | 0.0 | 1.0 | 0.00 | 0.00 | 0.00 | 90 | 1018.1 |
| 20260905024528 | 65 | 85 | 0.0 | 1.0 | 0.00 | 0.00 | 0.00 | 89 | 1018.1 |
| 20260905023121 | 65 | 89 | 0.0 | 1.0 | 0.00 | 0.00 | 0.00 | 86 | 1018.1 |
| 20260905021536 | 67 | 332 | 0.0 | 1.0 | 0.00 | 0.00 | 0.00 | 83 | 1018.1 |
| 20260905020110 | 67 | 333 | 1.0 | 2.0 | 0.00 | 0.00 | 0.00 | 84 | 1018.1 |
| 20260905014533 | 67 | 325 | 0.0 | 1.0 | 0.00 | 0.00 | 0.00 | 84 | 1018.2 |
| 20260905013010 | 67 | 331 | 1.0 | 2.0 | 0.00 | 0.00 | 0.00 | 84 | 1018.3 |
| 20260905011542 | 67 | 330 | 0.0 | 1.0 | 0.00 | 0.00 | 0.00 | 84 | 1018.2 |
| 20260905010005 | 67 | 224 | 0.0 | 1.0 | 0.00 | 0.00 | 0.00 | 86 | 1018.3 |
| 20260905004542 | 67 | 224 | 0.0 | 1.0 | 0.00 | 0.00 | 0.00 | 86 | 1018.4 |
| 20260905003012 | 67 | 224 | 0.0 | 1.0 | 0.00 | 0.00 | 0.00 | 86 | 1018.4 |
| 20260905001544 | 67 | 262 | 0.0 | 1.0 | 0.00 | 0.00 | 0.00 | 85 | 1018.5 |
| 20260905000014 | 68 | 6 | 0.0 | 1.0 | 0.00 | 0.00 | 0.00 | 84 | 1018.6 |
| 20260904234545 | 68 | 15 | 0.0 | 1.0 | 0.00 | 0.00 | 0.00 | 83 | 1018.7 |
| 20260904233015 | 69 | 15 | 0.0 | 1.0 | 0.00 | 0.00 | 0.00 | 82 | 1018.9 |
| 20260904231547 | 69 | 62 | 1.0 | 4.0 | 0.00 | 0.00 | 0.00 | 81 | 1018.9 |
| 20260904230028 | 70 | 61 | 2.0 | 4.0 | 0.00 | 0.00 | 0.00 | 80 | 1018.9 |
| 20260904224609 | 70 | 77 | 2.0 | 4.0 | 0.00 | 0.00 | 0.00 | 80 | 1018.9 |
| 20260904223032 | 70 | 65 | 2.0 | 5.0 | 0.00 | 0.00 | 0.00 | 80 | 1019.0 |
| 20260904221607 | 69 | 356 | 0.0 | 0.0 | 0.00 | 0.00 | 0.00 | 82 | 1019.0 |
| 20260904220031 | 70 | 33 | 0.0 | 0.0 | 0.00 | 0.00 | 0.00 | 81 | 1018.9 |
| 20260904214508 | 71 | 33 | 0.0 | 0.0 | 0.00 | 0.00 | 0.00 | 79 | 1018.8 |
| 20260904213041 | 71 | 36 | 0.0 | 0.0 | 0.00 | 0.00 | 0.00 | 79 | 1018.8 |
| 20260904211612 | 72 | 36 | 0.0 | 0.0 | 0.00 | 0.00 | 0.00 | 76 | 1018.9 |
| 20260904210050 | 73 | 6 | 0.0 | 0.0 | 0.00 | 0.00 | 0.00 | 75 | 1018.9 |
| 20260904204519 | 73 | 16 | 0.0 | 0.0 | 0.00 | 0.00 | 0.00 | 74 | 1019.0 |
| 20260904203042 | 73 | 19 | 0.0 | 1.0 | 0.00 | 0.00 | 0.00 | 74 | 1019.0 |
| 20260904201512 | 73 | 32 | 0.0 | 1.0 | 0.00 | 0.00 | 0.00 | 75 | 1019.0 |
| 20260904200044 | 72 | 29 | 0.0 | 1.0 | 0.00 | 0.00 | 0.00 | 75 | 1019.0 |
| 20260904194513 | 73 | 32 | 0.0 | 0.0 | 0.00 | 0.00 | 0.00 | 76 | 1019.0 |
| 20260904193046 | 74 | 32 | 0.0 | 1.0 | 0.00 | 0.00 | 0.00 | 75 | 1019.0 |
| 20260904191530 | 74 | 22 | 0.0 | 1.0 | 0.00 | 0.00 | 0.00 | 76 | 1019.1 |
| 20260904190004 | 74 | 25 | 0.0 | 1.0 | 0.00 | 0.00 | 0.00 | 75 | 1018.9 |
| 20260904184536 | 76 | 341 | 1.0 | 2.0 | 0.00 | 0.00 | 0.00 | 73 | 1018.8 |
| 20260904183013 | 77 | 287 | 0.0 | 1.0 | 0.00 | 0.00 | 0.00 | 71 | 1018.7 |
| 20260904181556 | 77 | 279 | 1.0 | 2.0 | 0.00 | 0.00 | 0.00 | 69 | 1018.5 |
| 20260904180032 | 79 | 264 | 0.0 | 5.0 | 0.00 | 0.00 | 0.00 | 66 | 1018.3 |
| 20260904174516 | 79 | 258 | 3.0 | 7.0 | 0.00 | 0.00 | 0.00 | 65 | 1018.3 |
| 20260904173111 | 80 | 233 | 1.0 | 8.0 | 0.00 | 0.00 | 0.00 | 60 | 1018.3 |
| 20260904171537 | 82 | 259 | 2.0 | 5.0 | 0.00 | 0.00 | 0.00 | 56 | 1018.3 |
| 20260904170014 | 83 | 258 | 2.0 | 4.0 | 0.00 | 0.00 | 0.00 | 54 | 1018.2 |
| 20260904164557 | 84 | 160 | 1.0 | 3.0 | 0.00 | 0.00 | 0.00 | 50 | 1018.3 |
| 20260904163034 | 85 | 131 | 1.0 | 4.0 | 0.00 | 0.00 | 0.00 | 50 | 1018.3 |
| 20260904161507 | 85 | 214 | 0.0 | 8.0 | 0.00 | 0.00 | 0.00 | 50 | 1018.3 |
| 20260904160049 | 86 | 153 | 2.0 | 5.0 | 0.00 | 0.00 | 0.00 | 48 | 1018.4 |
| 20260904154532 | 87 | 204 | 1.0 | 5.0 | 0.00 | 0.00 | 0.00 | 48 | 1018.5 |
| 20260904153020 | 86 | 133 | 1.0 | 6.0 | 0.00 | 0.00 | 0.00 | 48 | 1018.6 |
| 20260904151613 | 86 | 139 | 2.0 | 9.0 | 0.00 | 0.00 | 0.00 | 47 | 1018.6 |
| 20260904150104 | 87 | 171 | 2.0 | 6.0 | 0.00 | 0.00 | 0.00 | 48 | 1018.8 |
| 20260904144522 | 87 | 127 | 2.0 | 4.0 | 0.00 | 0.00 | 0.00 | 47 | 1018.9 |
| 20260904143100 | 87 | 208 | 4.0 | 8.0 | 0.00 | 0.00 | 0.00 | 46 | 1018.9 |
| 20260904141548 | 87 | 155 | 3.0 | 8.0 | 0.00 | 0.00 | 0.00 | 48 | 1019.1 |
| 20260904140041 | 86 | 94 | 2.0 | 6.0 | 0.00 | 0.00 | 0.00 | 48 | 1019.2 |
| 20260904134542 | 86 | 134 | 1.0 | 5.0 | 0.00 | 0.00 | 0.00 | 47 | 1019.3 |
| 20260904133005 | 86 | 162 | 2.0 | 8.0 | 0.00 | 0.00 | 0.00 | 48 | 1019.4 |
| 20260904131550 | 87 | 198 | 2.0 | 8.0 | 0.00 | 0.00 | 0.00 | 47 | 1019.4 |
| 20260904130036 | 87 | 204 | 4.0 | 7.0 | 0.00 | 0.00 | 0.00 | 46 | 1019.5 |
| 20260904124524 | 87 | 134 | 0.0 | 3.0 | 0.00 | 0.00 | 0.00 | 49 | 1019.6 |
| 20260904123013 | 85 | 188 | 3.0 | 8.0 | 0.00 | 0.00 | 0.00 | 50 | 1019.8 |
| 20260904121503 | 85 | 34 | 1.0 | 4.0 | 0.00 | 0.00 | 0.00 | 50 | 1019.9 |
| 20260904120105 | 85 | 262 | 3.0 | 6.0 | 0.00 | 0.00 | 0.00 | 50 | 1020.0 |
| 20260904114546 | 84 | 239 | 1.0 | 5.0 | 0.00 | 0.00 | 0.00 | 51 | 1020.3 |
| 20260904113033 | 85 | 248 | 3.0 | 6.0 | 0.00 | 0.00 | 0.00 | 50 | 1020.4 |
| 20260904111527 | 85 | 257 | 1.0 | 3.0 | 0.00 | 0.00 | 0.00 | 50 | 1020.5 |
| 20260904110059 | 84 | 168 | 0.0 | 2.0 | 0.00 | 0.00 | 0.00 | 49 | 1020.6 |
| 20260904104546 | 82 | 280 | 0.0 | 2.0 | 0.00 | 0.00 | 0.00 | 52 | 1020.8 |
| 20260904103025 | 81 | 213 | 0.0 | 3.0 | 0.00 | 0.00 | 0.00 | 54 | 1020.9 |
| 20260904101508 | 80 | 112 | 1.0 | 3.0 | 0.00 | 0.00 | 0.00 | 55 | 1021.0 |
| 20260904100054 | 78 | 285 | 0.0 | 2.0 | 0.00 | 0.00 | 0.00 | 58 | 1021.1 |
| 20260904094540 | 78 | 268 | 1.0 | 2.0 | 0.00 | 0.00 | 0.00 | 58 | 1021.2 |
| 20260904093012 | 78 | 170 | 0.0 | 3.0 | 0.00 | 0.00 | 0.00 | 57 | 1021.3 |
| 20260904091542 | 76 | 95 | 0.0 | 5.0 | 0.00 | 0.00 | 0.00 | 62 | 1021.5 |
| 20260904090023 | 75 | 116 | 1.0 | 3.0 | 0.00 | 0.00 | 0.00 | 61 | 1021.6 |
| 20260904084511 | 75 | 101 | 0.0 | 2.0 | 0.00 | 0.00 | 0.00 | 63 | 1021.7 |
| 20260904083043 | 74 | 48 | 0.0 | 3.0 | 0.00 | 0.00 | 0.00 | 63 | 1021.8 |
| 20260904081519 | 73 | 161 | 0.0 | 3.0 | 0.00 | 0.00 | 0.00 | 66 | 1021.8 |
| 20260904080057 | 72 | 89 | 0.0 | 4.0 | 0.00 | 0.00 | 0.00 | 68 | 1021.8 |
| 20260904074519 | 71 | 233 | 1.0 | 4.0 | 0.00 | 0.00 | 0.00 | 67 | 1021.9 |
| 20260904073155 | 71 | 201 | 1.0 | 3.0 | 0.00 | 0.00 | 0.00 | 69 | 1022.0 |
| 20260904071527 | 70 | 255 | 1.0 | 3.0 | 0.00 | 0.00 | 0.00 | 71 | 1022.0 |
| 20260904070105 | 71 | 184 | 1.0 | 3.0 | 0.00 | 0.00 | 0.00 | 71 | 1022.0 |
| 20260904064526 | 70 | 134 | 0.0 | 2.0 | 0.00 | 0.00 | 0.00 | 73 | 1021.9 |
| 20260904063114 | 70 | 77 | 0.0 | 1.0 | 0.00 | 0.00 | 0.00 | 74 | 1021.9 |
| 20260904061529 | 68 | 77 | 0.0 | 1.0 | 0.00 | 0.00 | 0.00 | 76 | 1022.0 |
| 20260904060053 | 67 | 94 | 0.0 | 2.0 | 0.00 | 0.00 | 0.00 | 77 | 1022.0 |
| 20260904054523 | 66 | 104 | 0.0 | 2.0 | 0.00 | 0.00 | 0.00 | 79 | 1022.0 |
| 20260904053055 | 64 | 315 | 0.0 | 0.0 | 0.00 | 0.00 | 0.00 | 84 | 1022.0 |
| 20260904051519 | 62 | 315 | 0.0 | 1.0 | 0.00 | 0.00 | 0.00 | 87 | 1021.8 |
| 20260904050051 | 62 | 314 | 0.0 | 1.0 | 0.00 | 0.00 | 0.00 | 86 | 1021.7 |
| 20260904044522 | 61 | 314 | 0.0 | 1.0 | 0.00 | 0.00 | 0.00 | 87 | 1021.6 |